EST,Max TemperatureF,Mean TemperatureF,Min TemperatureF,Max Dew PointF,MeanDew PointF,Min DewpointF,Max Humidity, Mean Humidity, Min Humidity, Max Sea Level PressureIn, Mean Sea Level PressureIn, Min Sea Level PressureIn, Max VisibilityMiles, Mean VisibilityMiles, Min VisibilityMiles, Max Wind SpeedMPH, Mean Wind SpeedMPH, Max Gust SpeedMPH,PrecipitationIn, CloudCover, Events, WindDirDegrees
2012-12-1,64,47,30,46,34,28,93,83,48,30.43,30.37,30.34,9,4,2,5,0,,0.00,0,,200
2012-12-2,64,49,34,50,41,30,93,81,60,30.41,30.34,30.24,10,6,2,8,1,,0.00,1,Rain,201
2012-12-3,70,60,50,55,51,47,94,83,54,30.28,30.25,30.21,10,6,2,7,2,,0.00,2,,230
2012-12-4,73,58,44,55,49,44,100,81,44,30.31,30.24,30.14,10,5,0,9,1,,0.00,0,Fog,211
2012-12-5,61,48,36,56,43,35,100,88,69,30.27,30.18,30.08,10,5,0,10,3,,0.08,3,Fog-Rain,261
2012-12-6,48,39,30,33,30,27,92,76,50,30.38,30.31,30.26,10,10,8,5,1,,0.00,0,,36
2012-12-7,57,46,34,52,44,31,92,82,67,30.25,30.12,29.99,10,10,7,4,0,,0.00,7,,170
2012-12-8,61,56,50,53,50,48,100,93,75,30.05,29.98,29.95,10,3,0,7,2,,0.01,5,Fog-Rain,234
2012-12-9,66,56,46,59,52,46,100,92,75,30.15,30.08,30.00,10,3,0,7,2,,0.07,4,Fog-Rain,200
2012-12-10,70,64,59,63,60,56,97,84,68,29.98,29.79,29.66,10,8,2,12,6,23,0.01,6,Rain,205
2012-12-11,66,57,48,58,43,35,93,66,53,30.19,29.96,29.70,10,10,7,10,5,16,0.00,7,,14
2012-12-12,46,44,43,36,29,26,66,54,44,30.37,30.32,30.19,10,10,10,9,5,,0.00,6,,32
2012-12-13,52,41,28,35,31,19,92,67,45,30.39,30.36,30.32,10,8,6,10,6,17,0.04,2,Rain,25
2012-12-14,55,40,25,36,28,22,96,75,34,30.38,30.32,30.25,10,8,5,5,0,,0.00,0,,275
2012-12-15,53,40,28,43,33,26,93,79,48,30.31,30.23,30.14,10,9,4,4,0,,0.01,1,Rain,190
2012-12-16,57,50,45,55,49,43,100,92,82,30.12,30.00,29.88,9,3,0,7,2,,0.19,8,Fog-Rain,205
2012-12-17,61,58,55,56,55,53,100,89,77,29.88,29.79,29.62,10,6,0,8,3,,0.19,7,Fog-Rain,207
2012-12-18,62,54,37,54,46,32,94,72,46,29.86,29.68,29.62,10,9,5,13,6,20,0.00,4,,253
2012-12-19,61,48,35,40,34,31,93,67,35,30.19,30.00,29.87,10,10,7,9,3,,0.01,0,,264
2012-12-20,63,46,32,57,40,30,92,78,52,30.22,29.97,29.47,10,7,2,15,2,26,0.20,3,Rain,150
2012-12-21,62,49,35,61,38,16,94,64,38,29.70,29.49,29.35,10,8,1,17,13,33,0.25,6,Rain,249
2012-12-22,50,42,28,22,20,19,75,48,29,30.06,29.90,29.71,10,10,10,16,8,24,0.00,0,,274
2012-12-23,54,39,24,28,22,18,84,54,27,30.14,30.06,29.99,10,10,10,6,2,,0.00,0,,211
2012-12-24,50,42,34,42,35,28,82,71,61,30.07,29.98,29.90,10,10,10,5,0,,0.01,6,Rain,229
2012-12-25,54,50,45,43,40,34,86,74,57,30.20,30.08,29.92,10,9,4,7,2,,0.00,6,,345
2012-12-26,59,49,39,55,45,34,100,90,73,30.18,29.68,29.40,10,4,0,14,4,24,1.41,8,Fog-Rain,273
2012-12-27,50,42,32,37,30,16,93,67,26,30.07,29.79,29.51,10,10,10,15,9,23,0.00,1,,271
2012-12-28,46,36,27,31,27,23,89,74,50,30.19,30.11,30.06,10,10,7,5,1,,0.00,0,,285
2012-12-29,46,42,37,39,36,29,100,84,65,30.02,29.75,29.60,10,6,1,8,2,17,0.42,6,Rain,296
2012-12-30,46,36,26,28,22,17,81,58,33,30.38,30.19,29.88,10,10,10,16,4,24,0.00,0,,315
2012-12-31,46,34,21,28,23,18,88,62,39,30.37,30.25,30.09,10,8,2,10,2,,0.00,2,,211